Regional Weather Roundup
Issued by NWS

Home | Current Version | Previous Version | Graphics & Text | Print | Product List | Glossary On
Versions: 1 2 3 4 5 6 7 8 9 10 11 12 13 14 15 16 17 18 19 20 21 22 23 24 25 26 27 28 29 30 31 32 33 34 35 36 37 38 39 40 41 42 43 44 45 46 47 48 49 50
501
ASUS45 KSLC 021410
RWRUT

UTAH REGIONAL WEATHER ROUNDUP
NATIONAL WEATHER SERVICE SALT LAKE CITY UT
800 AM MDT MON MAY 02 2016

UTZ001>011-023>025-021500-

NORTHERN UTAH

CITY           SKY/WX    TMP DP  RH WIND       PRES   REMARKS
BRIGHAM CITY   SUNNY     48  24  38 SE15      30.22R
HILL AFB       SUNNY     46  26  47 E14       30.20R
LOGAN          SUNNY     41  32  70 CALM      30.24R
OGDEN          SUNNY     50  27  40 E8        30.20R
PROVO AIRPORT  MOSUNNY   45  34  65 CALM      30.21R
SALT LAKE CITY MOSUNNY   48  33  56 N3        30.19R
VERNAL         SUNNY     40  26  57 CALM      30.26R
WENDOVER       SUNNY     45  32  61 S3        30.20R
HEBER CITY     MOSUNNY   36  28  75 CALM      30.25S

$$

UTZ012>022-026-027-021500-

SOUTHERN/CENTRAL UTAH

CITY           SKY/WX    TMP DP  RH WIND       PRES   REMARKS
BLANDING       MOSUNNY   41  35  79 S5        30.34R
BRYCE CANYON   MOSUNNY   30  27  88 W3        30.26R
CEDAR CITY     PTSUNNY   47  39  74 CALM      30.18R
DELTA          CLOUDY    45  37  76 CALM      30.19R
HANKSVILLE     CLOUDY    50  39  66 CALM      30.23R
MILFORD        CLOUDY    49  37  63 N3        30.19R
MOAB/CYNLANDS  CLOUDY    51  39  63 CALM      30.20R
PRICE          PTSUNNY   42  33  70 CALM      30.23R
ST GEORGE      MOSUNNY   54  41  62 SE5       30.17R

$$

REGIONAL REPORTS     COLORADO/ARIZONA

CITY           SKY/WX    TMP DP  RH WIND       PRES   REMARKS
CRAIG, CO      SUNNY     34  26  72 CALM      30.29R
GRAND JUNCTION CLOUDY    49  40  71 SE10      30.23R
RIFLE          PTSUNNY   45  38  76 CALM      30.25R
MONTROSE       CLOUDY    42  39  89 CALM      30.27R
CORTEZ         CLOUDY    41  35  79 CALM      30.27R
PAGE, AZ       CLOUDY    51  41  68 CALM      30.20R
GRAND CANYON   SUNNY     43  36  76 NE8       30.21R
KINGMAN        MOSUNNY   55  32  41 CALM      30.10R
FLAGSTAFF      CLOUDY    31  30  96 CALM      30.22R

$$

REGIONAL REPORTS    NEVADA/IDAHO/WYOMING

CITY           SKY/WX    TMP DP  RH WIND       PRES   REMARKS
LAS VEGAS, NV  MOSUNNY   62  42  47 CALM      30.05R
ELY            CLOUDY    33  29  85 S6        30.23R WCI  28
ELKO           SUNNY     39  30  70 CALM      30.19R
POCATELLO, ID  SUNNY     46  28  49 CALM      30.24R
BURLEY         SUNNY     40  37  89 CALM      30.19R
EVANSTON, WY   SUNNY     34  22  61 E7        30.29R WCI  28
ROCK SPRINGS   SUNNY     33  23  66 N3        30.30R

$$




USA.gov is the U.S. government's official web portal to all federal, state and local government web resources and services.